Weather in TSES

Russia / Khabarovsk Krai     51°07′01″N   132°52′44″E
temp.,
°C
wind,
m/s
gust,
m/s
humid.,
%
clouds,
%
prec.,
mm/h
press.,
hPa
HPBL,
m
21 june, mon
mon2101:00+14se226985 0.0 100742
04:00+11se22722 0.0 100819
07:00+16se11590 0.0 1009106
10:00+22wnw22375 0.0 1008997
13:00+25nw33335 0.0 10071883
16:00+27wnw442951 0.0 10052577
19:00+24w124062 0.0 1006437
22:00+19s225168 0.0 100717
22 june, tue
tue2201:00+16s226524 0.0 100829
04:00+13sse118147 0.0 100912
07:00+17ssw11655 0.1 1010130
10:00+23w234958 0.1 1009793
13:00+27wnw2436100 0.0 10072204
16:00+20sw496797 0.4 1007467
19:00+22se016399 0.6 1008206
22:00+15sse228842 0.9 100819
23 june, wed
wed2301:00+14sse229255 0.1 100823
04:00+13se22935 0.1 100824
07:00+16ssw1280100 0.0 1008129
10:00+22wnw2356100 0.0 1007871
13:00+25wnw334668 0.0 10061474
16:00+27wnw334279 0.1 10042197
19:00+17sse3596100 5.8 1006124
22:00+16sse229798 9.2 100741
24 june, thu
thu2401:00+15se1195100 0.8 100712
04:00+13se119615 0.8 100713
07:00+16e01938 0.0 100791
10:00+22w116335 0.0 1006783
13:00+26w214835 0.3 10041728
16:00+25wnw235695 0.7 1003514
19:00+25s23565 0.2 1002788
22:00+18sse22835 0.3 100332
25 june, fri
fri2501:00+16sse229593 1.7 100326
04:00+15sse229647 2.3 100321
07:00+17sse129219 0.0 1003100
10:00+24w22585 0.3 1002744
13:00+24sw1374100 6.1 1002500
16:00+28sw264587 8.2 10002434
19:00+21se357499 0.8 1001135
22:00+17se379452 2.4 1003147